TimeEDT,TemperatureF,Dew PointF,Humidity,Sea Level PressureIn,VisibilityMPH,Wind Direction,Wind SpeedMPH,Gust SpeedMPH,PrecipitationIn,Events,Conditions,WindDirDegrees,DateUTC
12:53 AM,50.0,46.0,86,30.17,10.0,Calm,Calm,-,N/A,,Mostly Cloudy,0,2012-10-09 04:53:00
1:53 AM,50.0,46.9,89,30.16,10.0,Calm,Calm,-,N/A,,Overcast,0,2012-10-09 05:53:00
2:53 AM,50.0,46.9,89,30.16,10.0,Calm,Calm,-,N/A,,Overcast,0,2012-10-09 06:53:00
3:53 AM,51.8,46.4,82,30.15,10.0,Calm,Calm,-,N/A,,Overcast,0,2012-10-09 07:53:00
4:53 AM,51.1,46.9,86,30.15,10.0,Calm,Calm,-,N/A,,Overcast,0,2012-10-09 08:53:00
5:53 AM,51.1,46.9,86,30.14,10.0,NE,5.8,-,N/A,,Overcast,40,2012-10-09 09:53:00
6:53 AM,51.8,46.4,82,30.17,10.0,Calm,Calm,-,N/A,,Overcast,0,2012-10-09 10:53:00
7:53 AM,51.1,46.9,86,30.17,10.0,Calm,Calm,-,N/A,,Mostly Cloudy,0,2012-10-09 11:53:00
8:53 AM,52.0,46.9,83,30.17,10.0,NE,4.6,-,N/A,,Mostly Cloudy,40,2012-10-09 12:53:00
9:53 AM,53.1,48.0,83,30.17,10.0,NE,4.6,-,N/A,,Mostly Cloudy,50,2012-10-09 13:53:00
10:53 AM,54.0,48.0,80,30.17,10.0,Calm,Calm,-,N/A,,Overcast,0,2012-10-09 14:53:00
11:18 AM,55.4,48.2,77,30.18,10.0,NW,3.5,-,N/A,,Overcast,320,2012-10-09 15:18:00
11:31 AM,55.4,48.2,77,30.18,10.0,Calm,Calm,-,N/A,,Overcast,0,2012-10-09 15:31:00
11:53 AM,55.9,48.9,77,30.17,10.0,Calm,Calm,-,N/A,,Overcast,0,2012-10-09 15:53:00
12:53 PM,57.9,48.0,70,30.16,10.0,Variable,3.5,-,N/A,,Overcast,0,2012-10-09 16:53:00
1:53 PM,61.0,48.0,62,30.12,10.0,Calm,Calm,-,N/A,,Mostly Cloudy,0,2012-10-09 17:53:00
2:53 PM,61.0,48.0,62,30.11,10.0,WSW,3.5,-,N/A,,Mostly Cloudy,250,2012-10-09 18:53:00
3:53 PM,61.0,48.0,62,30.09,10.0,Variable,3.5,-,N/A,,Mostly Cloudy,0,2012-10-09 19:53:00
4:53 PM,62.1,46.9,58,30.08,10.0,South,4.6,-,N/A,,Mostly Cloudy,170,2012-10-09 20:53:00
5:53 PM,63.0,48.0,58,30.06,10.0,ESE,5.8,-,N/A,,Scattered Clouds,110,2012-10-09 21:53:00
6:53 PM,60.1,48.9,67,30.05,10.0,ESE,3.5,-,N/A,,Scattered Clouds,120,2012-10-09 22:53:00
7:53 PM,55.9,51.1,84,30.06,10.0,Calm,Calm,-,N/A,,Scattered Clouds,0,2012-10-09 23:53:00
8:53 PM,53.1,50.0,89,30.07,10.0,Calm,Calm,-,N/A,,Scattered Clouds,0,2012-10-10 00:53:00
9:53 PM,51.1,48.9,92,30.08,10.0,Calm,Calm,-,N/A,,Scattered Clouds,0,2012-10-10 01:53:00
10:53 PM,51.1,48.0,89,30.09,9.0,Calm,Calm,-,N/A,,Clear,0,2012-10-10 02:53:00
11:53 PM,50.0,46.9,89,30.09,10.0,Calm,Calm,-,N/A,,Clear,0,2012-10-10 03:53:00